Regional Weather Roundup
Issued by NWS Sterling, VA

Home | Current Version | Previous Version | Text Only | Print | Product List | Glossary Off
Versions: 1 2 3 4 5 6 7 8 9 10 11 12 13 14 15 16 17 18 19 20 21 22 23 24 25 26 27 28 29 30 31 32 33 34 35 36 37 38 39 40 41 42 43 44 45 46 47 48 49 50

000
ASUS41 KLWX 151810
RWRLWX

REGIONAL WEATHER ROUNDUP
NATIONAL WEATHER SERVICE BALTIMORE MD/WASHINGTON DC
200 PM EDT MON SEP 15 2014

Note: "FAIR" indicates few or no clouds below 12,000 feet
with no significant weather and/or obstructions to visibility.
 TC=TEMPERATURE CELSIUS

 * =Non NWS site. Station does not report precipitation (e.g. rain,
    snow, etc.), thunder, or fog.

DCZ001-MDZ009-015-VAZ040>042-051-053>054-151900-
WASHINGTON METRO

CITY           SKY/WX    TMP DP  RH WIND       PRES   REMARKS
WASHINGTON NAT PTSUNNY   73  47  39 CALM      30.19F
DULLES         PTSUNNY   71  51  49 CALM      30.19F
ANDREWS AFB    PTSUNNY   71  53  53 VRB1      30.18F
QUANTICO       MOSUNNY   72  53  51 S3        30.19F
COLLEGE PARK*  MOSUNNY   73  52  46 CALM      30.18F
LEESBURG*      SUNNY     72  54  53 SW3       30.20F
MANASSAS*      SUNNY     73  54  49 S5        30.19F
GAITHERSBURG*  PTSUNNY   68  52  56 CALM      30.22F

$$

MDZ006>007-011-014-151900-
BALTIMORE METRO

CITY           SKY/WX    TMP DP  RH WIND       PRES   REMARKS
BWI AIRPORT    MOSUNNY   70  52  52 S8        30.19F
MD SCIENCE CTR   N/A     70  48  45 MISG      30.19F
MARTIN STATE   MOSUNNY   72  54  53 SE7       30.21F
ANNAPOLIS      SUNNY     69  53  56 SE8       30.19F
FORT MEADE*    PTSUNNY   70  52  52 S3        30.21F

$$

MDZ012-015-019>023-151900-
MARYLAND EASTERN SHORE

CITY           SKY/WX    TMP DP  RH WIND       PRES   REMARKS
OCEAN CITY     SUNNY     73  50  44 VRB6      30.18F
SALISBURY      MOSUNNY   75  51  43 CALM      30.18F
BAY BRIDGE AP*   N/A     70  46  43 NW6       30.20F
CAMBRIDGE*     SUNNY     72  48  43 NW3       30.19F
EASTON*        MOSUNNY   73  52  46 NW8       30.23F

$$

MDZ017>025-151900-
SOUTHERN MARYLAND

CITY           SKY/WX    TMP DP  RH WIND       PRES   REMARKS
PATUXENT RIVER PTSUNNY   70  53  54 E8        30.19F
ST INIGOES     CLOUDY    72  54  53 VRB5      30.18F
LEONARDTOWN*   MOSUNNY   70  54  56 E6        30.20F

$$

MDZ003>005-151900-
NORTH CENTRAL MARYLAND

CITY           SKY/WX    TMP DP  RH WIND       PRES   REMARKS
FREDERICK*     MOSUNNY   75  52  43 W7        30.22F
HAGERSTOWN APT SUNNY     68  49  50 MISG      30.19F
WESTMINSTER*   MOSUNNY   70  46  43 SW3       30.19F

$$

MDZ501>502-151900-
WESTERN MARYLAND

CITY           SKY/WX    TMP DP  RH WIND       PRES   REMARKS
OAKLAND*       SUNNY     63  43  48 SW3       30.20F
CUMBERLAND*    SUNNY     75  46  35 CALM      30.22F

$$

VAZ025>031-151900-
SHENANDOAH VALLEY

CITY           SKY/WX    TMP DP  RH WIND       PRES   REMARKS
WINCHESTER*    MOSUNNY   72  50  46 E7        30.18F
STAUNTON*      MOSUNNY   73  52  47 S7G17     30.20F

$$

WVZ021-048>050-054>055-151900-
EASTERN WEST VIRGINIA PANHANDLE

CITY           SKY/WX    TMP DP  RH WIND       PRES   REMARKS
MARTINSBURG    SUNNY     70  47  43 VRB5      30.19F
PETERSBURG*    MOSUNNY   73  51  45 E3        30.17F

$$

VAZ036>039-050-151900-
CENTRAL FOOTHILLS

CITY           SKY/WX    TMP DP  RH WIND       PRES   REMARKS
CHARLOTTESVILL MOSUNNY   72  54  53 CALM      30.18F
ORANGE*        PTSUNNY   73  52  46 SE8       30.19F

$$

VAZ055>057-151900-
NORTH AND CENTRAL PIEDMONT

CITY           SKY/WX    TMP DP  RH WIND       PRES   REMARKS
FREDERICKSBRG* PTSUNNY   76  54  46 S6        30.17F
STAFFORD*      SUNNY     72  55  54 CALM      30.22F

$$

NCZ024-NYZ072-PAZ021-071-VAZ022-071-151900-
OTHER REGIONAL OBSERVATIONS

CITY           SKY/WX    TMP DP  RH WIND       PRES   REMARKS
NEW YORK CITY  SUNNY     70  40  33 VRB3      30.19F
PHILADELPHIA   MOSUNNY   70  44  39 VRB3      30.19F
PITTSBURGH     CLOUDY    65  45  48 S7        30.17F
ROANOKE        PTSUNNY   74  61  63 SE9       30.20F
RICHMOND       CLOUDY    78  55  44 SE7       30.17F
RALEIGH        PTSUNNY   73  61  65 VRB3      30.19F

$$

ANZ530>537-151900-
MARINE OBSERVATIONS

STATION/POSITION TIME  TEMP    WIND        PRES
                       AIR SEA DIR/SP/G
                 (UTC) (F)     (DEG/KT/KT) (MB)
THOMAS PT LIGHT  1800   67 75   90/  2/  3 1023.3F
BALT KEY BRIDGE  1800   66     140/  5/  6 1022.6S
COVE POINT       1800   67     170/  3/  5 1022.3F
LEWISETTA        1800   68 74  100/ 10/ 11 1021.9S
SOLOMONS ISLAND  1800      77                N/A
PINEY POINT      1800          160/  7/  8   N/A

$$



USA.gov is the U.S. government's official web portal to all federal, state and local government web resources and services.